Theta_e
305 305 305 305 305 305 305 305 305 306 306 307 308 308 309 309 309 310 311 311 311 313 315 317 318 318 318 317 320 321 320 319 320 320 320 322 323 325 329 332 330 335 338 340 341 342 345
305 305 305 305 305 305 305 305 305 305 305 305 306 307 308 308 309 310 311 311 311 312 314 316 318 318 317 318 319 322 322 321 320 320 320 322 323 325 328 329 332 335 339 343 342 343 345
305 305 305 305 304 304 305 305 305 305 305 305 306 306 307 307 308 309 310 311 312 312 313 315 317 317 317 320 320 320 323 323 322 321 320 322 322 327 327 328 331 339 344 344 343 343 345
304 303 304 304 304 304 304 304 304 304 304 305 306 306 307 307 308 309 310 311 312 312 313 316 318 319 320 320 321 326 326 321 323 321 321 322 323 323 325 330 340 342 342 345 344 343 344
304 303 303 302 302 302 303 303 303 303 303 304 305 305 306 307 308 309 309 311 313 313 313 317 322 321 322 323 326 326 324 322 323 321 321 322 323 322 324 338 343 342 344 345 347 343 345
306 304 303 302 302 302 302 302 302 303 303 304 304 305 306 306 307 308 309 312 312 313 321 324 324 325 323 326 325 324 326 323 323 321 322 321 321 323 326 335 338 343 345 345 348 345 345
307 305 303 302 301 301 301 301 301 302 302 302 303 304 305 306 306 307 309 311 314 316 315 322 324 326 325 324 324 326 325 322 322 322 323 321 322 323 327 334 337 341 343 344 346 345 346
308 306 305 303 302 301 301 301 301 301 302 302 302 303 304 306 306 307 308 308 312 309 310 315 316 316 317 319 321 323 324 324 322 323 320 322 322 323 325 330 336 342 343 344 344 345 345
309 308 306 303 301 301 301 301 301 301 301 302 302 303 303 305 305 308 308 310 309 306 309 313 315 315 317 317 319 320 325 324 324 322 321 322 322 322 324 327 329 340 343 345 344 345 346
309 308 307 305 303 301 301 301 301 301 301 302 302 302 302 304 306 305 309 308 306 307 317 321 319 320 320 320 320 320 322 325 322 326 320 321 321 322 324 327 329 333 339 343 344 346 349
309 309 308 306 303 301 301 300 300 300 301 301 301 302 302 302 303 305 305 305 306 313 322 321 321 321 321 322 322 322 322 325 327 324 322 325 320 322 323 326 328 332 334 339 343 346 346
308 308 307 307 304 302 302 301 300 300 301 301 301 302 302 303 303 305 306 305 313 321 322 323 324 324 323 323 323 323 323 324 325 325 321 325 320 323 324 326 328 329 332 334 340 342 347
307 306 306 306 306 303 303 302 300 300 300 301 301 302 302 302 304 304 304 305 316 320 320 322 323 321 322 324 324 324 325 326 327 328 326 325 324 323 323 325 329 330 333 336 339 344 340
305 305 305 305 305 303 302 302 301 300 300 300 301 302 303 304 304 305 304 310 316 317 320 320 321 321 322 323 324 324 326 325 327 328 327 327 326 323 324 325 328 329 331 334 338 338 337
305 304 304 305 304 303 302 302 301 300 300 300 301 303 303 304 308 309 305 308 313 316 320 320 321 321 322 322 322 324 325 325 326 328 327 327 326 321 323 324 329 329 330 332 332 328 335
305 304 304 303 303 303 304 302 302 304 300 300 300 302 304 308 312 308 306 308 310 315 319 320 322 322 323 322 322 323 324 324 326 325 328 324 325 323 322 324 325 327 328 328 329 337 334
305 304 305 304 303 303 301 302 302 304 301 300 300 301 304 310 308 305 307 306 308 310 315 318 320 321 321 322 321 321 321 323 323 324 327 326 324 323 322 323 325 325 326 327 330 331 336
305 305 304 305 303 302 301 302 303 303 302 300 299 303 306 307 310 306 308 309 309 311 311 314 315 319 320 320 320 320 321 322 321 321 323 324 327 327 324 324 323 325 326 328 332 333 330
304 303 303 303 303 302 301 303 302 303 302 300 302 303 304 307 312 312 313 314 315 312 314 313 313 316 317 318 319 319 319 320 321 322 325 321 324 327 327 326 323 323 325 326 327 329 337
303 303 303 302 303 302 301 303 303 303 302 300 303 307 310 308 308 311 313 314 315 317 318 313 315 316 316 316 318 319 320 321 321 321 321 322 326 327 328 328 326 325 324 324 325 329 328
303 303 303 304 303 301 301 302 302 302 302 301 304 307 309 313 312 312 311 311 313 314 318 317 319 316 317 318 319 319 321 321 322 322 327 330 333 330 330 328 327 325 324 324 326 327 329
303 303 303 303 303 301 302 302 303 303 302 301 304 306 305 307 308 311 310 311 314 316 316 318 320 322 322 323 324 322 323 323 324 327 326 325 330 328 331 330 327 326 326 325 325 325 327
301 300 301 301 301 301 302 303 302 303 302 302 302 301 303 304 307 309 310 311 312 311 314 315 315 315 318 322 323 322 323 322 325 329 334 332 328 327 328 328 326 326 327 326 326 327 327
301 300 300 300 301 301 300 301 301 302 302 302 302 300 303 304 306 308 310 310 311 311 311 312 311 314 316 317 318 322 320 322 326 328 331 334 331 327 331 326 326 326 327 327 327 327 328
302 301 301 301 300 301 301 302 302 302 302 302 302 301 301 303 304 306 308 310 310 311 311 311 312 313 313 315 324 329 329 328 328 330 331 334 332 335 333 331 328 331 334 327 325 329 330
302 303 302 303 302 302 301 302 300 301 302 302 302 302 301 301 301 302 307 308 310 310 311 312 312 312 319 324 326 330 332 331 334 335 331 331 332 337 333 331 331 332 333 333 334 331 335
301 301 302 302 302 301 301 301 302 302 302 302 302 302 301 302 302 303 304 307 308 310 311 310 312 313 321 328 329 329 330 331 336 335 338 339 341 338 337 333 332 334 333 333 336 336 334
301 302 301 302 302 302 301 301 301 301 302 302 302 302 302 302 301 302 303 303 307 308 309 309 312 317 322 330 332 330 332 334 336 336 336 339 341 342 340 338 335 331 333 338 335 333 333
301 302 302 302 302 302 302 302 301 301 302 302 302 302 302 301 301 301 302 304 304 305 306 309 312 310 316 322 325 327 335 334 338 338 335 338 338 340 337 336 331 328 332 330 330 332 334
Wind_Speed
17 18 18 18 19 19 19 19 20 20 20 21 20 20 19 20 21 21 21 21 20 19 19 19 18 18 18 10 22 18 12 12 12 10 27 23 19 12 10 8 6 4 4 6 6 18 19
20 18 19 19 19 20 21 20 20 21 22 23 22 22 22 21 20 21 22 22 21 21 20 19 18 18 15 11 11 7 10 9 9 12 27 25 14 13 8 5 8 5 6 9 10 17 20
23 24 23 24 24 23 22 22 21 21 21 22 23 24 25 25 24 22 21 22 23 21 21 19 18 17 17 28 22 24 18 18 8 13 28 27 10 10 8 7 7 14 9 10 12 17 9
24 23 22 22 22 23 24 24 24 23 23 23 22 22 23 25 27 27 23 22 23 22 20 18 15 14 11 16 14 13 12 8 8 12 23 22 11 9 2 10 7 5 6 7 8 14 11
25 25 25 25 24 22 21 21 22 22 23 25 26 27 25 23 24 26 24 22 21 21 17 14 9 6 9 6 3 4 6 8 9 14 17 17 12 3 5 9 6 3 7 10 10 12 9
24 24 24 25 25 24 24 23 22 22 22 23 24 26 28 25 25 24 22 18 18 14 10 7 8 4 10 4 6 6 6 8 9 19 9 6 5 6 4 10 13 12 8 8 8 13 9
27 27 26 24 24 24 24 24 24 24 24 24 23 24 25 24 26 23 16 12 6 4 5 8 5 8 6 5 9 6 7 15 13 9 9 5 9 15 17 15 12 15 15 16 9 10 11
28 28 29 28 27 26 25 25 25 25 25 26 25 27 28 22 24 17 13 5 3 5 12 21 26 32 30 19 7 14 9 9 8 9 7 6 15 14 14 13 9 15 15 14 7 12 12
28 28 27 26 26 27 26 26 27 26 25 26 26 26 29 24 23 7 11 5 4 11 5 14 14 13 11 21 17 20 14 11 11 11 13 13 8 10 13 12 12 12 17 14 14 12 4
28 28 28 28 28 27 27 27 26 27 27 27 26 25 30 27 8 18 2 2 14 12 3 6 4 4 7 8 8 28 22 13 4 16 12 10 9 17 13 18 15 17 15 16 16 12 13
28 29 29 28 28 27 27 27 27 28 28 26 27 24 27 25 22 14 7 10 10 2 5 1 3 2 6 8 2 10 26 16 12 9 7 9 11 14 21 20 15 12 12 18 17 18 9
29 28 28 29 28 28 28 26 27 28 29 29 27 25 27 26 21 9 1 7 1 3 8 3 2 5 4 8 2 6 14 14 15 12 4 14 4 14 15 17 18 10 12 6 5 9 9
29 27 26 29 28 28 27 28 27 28 29 29 29 27 24 26 17 15 10 2 4 6 1 4 5 3 8 5 6 8 15 16 13 17 15 12 14 7 11 18 15 14 16 7 8 7 9
27 28 29 27 27 28 28 28 28 29 30 31 31 29 25 19 15 14 9 4 11 5 12 1 1 6 5 2 5 12 14 19 18 18 13 16 14 17 14 18 15 21 20 11 17 10 10
28 30 30 27 27 26 27 28 28 28 30 31 30 28 20 12 9 11 11 10 9 9 4 5 7 10 8 3 4 11 12 20 21 22 15 15 17 4 12 9 18 15 13 17 9 1 7
30 29 30 27 25 24 25 26 26 29 29 30 31 27 6 9 8 15 6 13 8 7 4 4 8 5 4 3 3 8 9 8 14 21 21 10 7 15 17 14 9 16 15 10 8 17 15
31 29 30 28 26 27 28 24 23 27 29 27 24 13 7 2 10 8 6 8 10 14 9 8 12 12 8 4 3 2 2 2 8 18 21 15 12 6 8 18 21 8 9 5 7 9 15
27 29 30 28 28 28 24 20 20 23 29 24 11 4 3 9 4 3 4 5 4 6 16 13 5 14 13 8 8 5 8 5 2 10 13 14 13 14 15 7 9 24 20 18 11 12 6
33 33 30 27 25 27 20 16 17 20 24 25 12 8 8 11 4 4 4 6 6 9 8 9 15 12 10 14 8 11 12 12 17 5 7 9 9 11 15 16 9 8 17 21 19 14 18
25 26 25 23 25 24 17 16 17 18 20 20 5 4 3 7 4 4 4 6 5 7 12 16 7 7 8 9 10 4 6 5 7 13 10 10 6 12 16 20 16 16 12 17 19 15 16
25 25 24 22 22 22 15 14 15 16 17 17 3 3 3 3 2 8 4 5 10 5 4 3 9 18 14 14 17 19 15 16 15 11 5 7 10 16 20 22 23 24 22 21 19 23 19
27 26 25 24 21 18 16 14 13 12 12 10 5 3 6 8 12 9 6 4 8 5 3 8 7 4 12 14 15 12 17 15 14 1 12 7 5 8 15 25 23 27 27 23 23 24 20
23 23 22 22 23 23 21 17 16 14 9 5 5 6 5 7 4 4 4 4 3 9 7 14 11 10 10 11 9 11 18 18 11 6 9 7 5 5 7 17 20 22 25 24 20 21 21
23 22 22 22 22 21 21 18 18 16 11 11 8 4 4 6 6 6 9 15 16 14 13 15 21 8 4 15 24 18 16 19 15 15 8 7 5 2 3 4 9 16 23 25 24 20 18
25 24 24 25 25 24 21 20 19 14 12 12 11 7 5 7 11 13 15 13 17 16 16 22 21 21 16 12 7 7 6 7 13 9 7 7 6 3 3 7 8 5 4 13 22 23 15
27 26 24 24 27 23 21 18 17 15 13 15 15 12 8 5 7 13 9 8 8 8 9 7 11 15 3 3 4 6 9 10 9 11 8 11 8 6 2 5 6 3 2 4 1 14 14
25 24 23 23 22 19 17 16 14 15 13 15 17 14 11 8 18 22 12 10 9 5 5 8 10 6 3 3 5 6 9 4 10 15 9 6 3 2 6 4 6 7 9 2 9 5 4
24 23 21 20 19 16 15 14 14 16 14 14 16 15 17 9 28 30 28 22 17 10 4 10 11 1 3 3 3 2 3 2 3 5 7 7 6 2 3 4 12 16 2 5 3 7 10
23 20 15 14 14 13 14 13 15 14 12 13 15 15 15 21 21 27 26 24 29 30 19 5 6 10 5 3 2 4 2 1 1 6 0 6 4 7 8 5 12 11 1 4 7 11 14
Wind_Direction
357 354 351 348 346 344 342 340 340 338 334 330 327 325 323 322 320 318 316 314 310 303 300 300 301 303 306 288 267 293 286 281 259 232 200 194 184 185 196 191 159 220 182 185 181 176 173
357 355 350 347 345 342 341 340 339 339 337 333 328 325 324 322 320 318 315 312 307 304 298 296 296 294 290 261 292 287 302 316 236 219 203 191 201 197 181 162 199 160 126 115 145 154 159
355 352 351 349 347 345 343 340 340 339 335 331 328 326 324 323 321 317 316 313 306 303 298 295 291 286 269 267 280 278 277 272 261 221 197 192 209 192 163 141 132 141 120 108 139 153 152
354 352 350 348 346 345 343 342 342 340 334 329 326 323 320 323 322 319 320 315 308 302 297 292 286 274 255 283 277 277 258 259 229 203 198 184 171 177 141 126 104 137 152 170 170 171 155
351 350 348 347 346 345 342 341 339 338 335 332 330 327 324 325 320 318 324 318 310 301 294 287 282 251 263 266 244 32 206 208 176 162 180 200 203 173 156 153 139 185 187 198 168 193 156
350 348 347 345 344 343 344 343 340 337 333 330 329 326 323 328 324 323 329 321 311 298 285 280 257 257 239 190 150 350 162 169 145 169 163 156 153 186 163 188 201 185 202 197 183 183 190
347 346 344 343 342 342 341 341 340 339 337 334 333 325 321 328 325 332 335 335 325 311 296 242 255 245 225 217 268 151 111 166 142 148 173 177 196 199 194 196 214 192 207 193 173 171 190
344 343 342 341 339 339 338 338 337 336 335 334 336 332 324 327 325 338 347 329 64 338 304 282 264 255 251 251 256 209 224 180 168 177 134 173 215 203 199 203 199 202 212 204 153 163 198
338 338 337 334 332 333 334 334 334 333 333 332 333 332 326 329 332 7 346 125 46 342 264 289 257 247 244 221 224 228 178 177 180 170 186 208 208 195 200 201 197 212 208 191 196 180 165
331 330 332 331 329 326 325 326 327 327 327 328 329 333 326 329 339 340 65 297 327 332 291 265 244 235 184 187 216 221 196 170 173 195 170 213 205 193 198 212 202 208 214 203 185 176 227
325 326 327 326 325 322 319 319 321 322 323 322 323 329 323 324 321 323 289 301 323 103 303 130 188 225 195 184 154 195 192 195 189 169 181 193 190 192 201 207 201 224 182 196 195 198 209
323 324 326 327 328 326 320 317 319 320 320 319 320 324 319 316 314 307 244 325 93 195 244 267 192 189 174 220 213 119 169 189 187 180 205 211 199 196 200 204 198 148 126 97 150 202 220
323 326 321 320 324 326 324 321 321 321 318 317 317 318 315 304 295 281 273 243 195 224 355 209 192 181 330 198 211 184 177 181 176 186 199 203 218 215 195 199 199 196 172 171 195 200 225
322 319 318 318 314 319 324 324 325 323 321 320 319 318 315 296 282 256 202 183 219 205 218 352 200 289 279 221 221 190 183 191 195 186 188 204 219 209 199 206 189 198 198 202 206 206 215
326 325 326 318 318 316 317 321 323 324 321 323 322 319 316 289 262 222 175 216 214 200 201 228 266 270 265 221 241 195 202 208 194 192 196 200 223 205 205 192 179 181 209 214 222 23 224
318 319 323 323 320 317 318 320 325 324 323 329 329 324 302 293 251 180 207 232 220 212 203 202 222 206 226 203 243 201 192 189 200 201 195 183 208 208 200 195 190 204 180 192 214 219 230
313 316 315 317 317 316 316 320 324 325 326 330 330 317 322 317 151 180 221 232 236 239 228 223 231 236 237 220 227 254 224 242 202 193 201 191 215 161 177 207 200 173 185 210 231 230 231
306 307 309 309 314 317 319 322 325 333 334 331 337 297 297 163 220 208 239 209 255 244 229 236 242 237 229 217 243 255 244 253 198 144 187 202 207 220 216 208 236 222 215 208 215 197 224
303 305 307 306 307 317 320 331 336 332 342 338 320 282 251 224 243 227 278 276 263 252 224 202 222 230 225 244 247 239 237 248 245 251 181 165 211 215 231 240 206 225 226 223 229 243 216
309 304 310 305 309 318 308 318 322 326 334 335 313 308 281 207 271 285 334 276 263 285 253 242 233 212 218 227 232 241 215 256 249 228 217 173 180 216 224 230 233 227 227 217 220 225 225
306 304 305 303 304 311 298 300 315 317 326 335 248 262 325 308 199 324 290 291 288 282 287 250 222 235 223 234 235 236 242 266 282 268 250 207 214 215 227 229 217 223 229 219 218 234 231
302 302 302 302 300 307 297 295 294 301 317 323 279 309 325 287 293 289 262 241 256 298 291 276 240 236 246 233 238 246 227 232 239 254 213 195 224 219 242 231 224 221 221 226 223 227 230
304 304 303 303 304 293 291 289 287 284 299 295 252 282 286 272 288 281 259 294 290 347 272 254 312 326 287 273 278 268 273 268 271 260 199 192 197 177 243 232 218 231 223 220 227 224 211
305 302 303 301 296 297 292 283 282 286 266 280 279 285 270 271 256 262 283 298 293 296 276 276 299 282 255 307 309 273 247 240 235 235 224 170 140 213 290 154 214 236 225 219 214 215 216
301 300 295 297 297 298 291 286 279 274 261 274 259 225 233 270 277 283 273 279 294 290 270 276 279 265 293 298 267 238 186 186 219 199 185 219 134 161 225 245 269 236 172 213 216 234 227
294 294 295 296 297 292 292 286 272 266 251 254 265 247 233 267 250 258 302 293 289 292 287 276 295 312 257 244 225 232 199 195 171 155 163 101 105 143 109 256 252 208 57 353 294 226 187
299 296 291 290 301 289 289 285 275 266 243 250 253 255 238 243 263 269 267 282 285 298 290 300 335 324 347 219 219 228 226 219 174 190 175 184 112 152 124 250 273 1 324 226 184 195 194
300 298 294 293 291 286 286 281 281 265 252 253 253 255 244 262 271 262 261 264 274 274 287 313 326 40 275 259 253 189 247 166 193 162 176 164 158 92 106 204 257 357 269 237 28 74 108
298 298 289 297 293 293 294 283 266 264 255 253 252 267 263 249 260 279 270 254 249 249 261 251 290 322 282 321 339 285 262 329 65 182 349 174 191 135 131 307 324 319 16 74 96 85 81